Regional Weather Roundup
Issued by NWS Mobile, AL

Home | Current Version | Previous Version | Text Only | Print | Product List | Glossary On
Versions: 1 2 3 4 5 6 7 8 9 10 11 12 13 14 15 16 17 18 19 20 21 22 23 24 25 26 27 28 29 30 31 32 33 34 35 36 37 38 39 40 41 42 43 44 45 46 47 48 49 50
000
ASUS44 KMOB 260910
RWRMOB
REGIONAL WEATHER ROUNDUP
NATIONAL WEATHER SERVICE MOBILE AL
400 AM CDT SAT JUL 26 2014

NOTE: "FAIR" INDICATES FEW OR NO CLOUDS BELOW 12,000 FEET WITH NO
      SIGNIFICANT WEATHER AND/OR OBSTRUCTIONS TO VISIBILITY.

  * THESE STATIONS ARE PART OF THE UNIVERSITY OF SOUTH ALABAMA
    MESONET AND ARE NOT UNDER NWS OR FAA QUALITY CONTROL.

ALZ061>064-261000-
COASTAL ALABAMA

CITY           SKY/WX    TMP DP  RH WIND       PRES   REMARKS
MOBILE REG APT MOCLDY    74  74 100 W3        30.01S FOG
BROOKLEY FIELD CLEAR     74  74 100 CALM      30.02R FOG
USA CAMPUS*      N/A     73  73 100 CALM      29.99F
DOG RIVER*       N/A     75  75 100 CALM      30.00S


CITY           SKY/WX    TMP DP  RH WIND       PRES   REMARKS
MOUNT VERNON*  NOT AVBL
SARALAND*      NOT AVBL
BAY MINETTE*   NOT AVBL
LOXLEY*          N/A    N/A N/A N/A CALM      30.00F
ROBERTSDALE*     N/A    N/A N/A N/A CALM      30.00S
FAIRHOPE*        N/A     79  77  94 W3        30.00S
ELBERTA*         N/A     77  64  65 CALM      29.99S
FOLEY*         NOT AVBL
GRAND BAY*       N/A     75  75 100 CALM      29.99S
DAUPHIN ISLND* NOT AVBL
BON SCOUR NWR* NOT AVBL
GULF SHORES    MOCLDY    77  76  97 CALM      30.00R

$$

ALZ051>060-261000-
INTERIOR SOUTHWEST AND SOUTH CENTRAL ALABAMA

CITY           SKY/WX    TMP DP  RH WIND       PRES   REMARKS
GREENVILLE     CLEAR     73  70  90 CALM      30.01S
EVERGREEN      CLEAR     73  71  93 CALM      30.01S FOG
CASTLEBERRY*   NOT AVBL
ATMORE*          N/A     73  73 100 CALM      30.02F
DIXIE*         NOT AVBL
ANDALUSIA/OPP  CLEAR     78  73  84 CALM      30.01R
ANDALUSIA*     NOT AVBL
FLORALA APT    CLEAR     76  73  91 CALM      30.03R FOG
FLORALA*         N/A     73  72  94 CALM      29.99R

$$

FLZ001>006-261000-
WESTERN FLORIDA PANHANDLE

CITY           SKY/WX    TMP DP  RH WIND       PRES   REMARKS
PENSACOLA      CLEAR     77  75  93 W6        30.00S
NAS PENSACOLA  PTCLDY    76  76 100 CALM      30.00R FOG
MILTON         CLEAR     75  72  90 W5        30.00S FOG
WHTNG S FIELD  CLEAR     76  73  91 NW3       30.00S


CITY           SKY/WX    TMP DP  RH WIND       PRES   REMARKS
WALNUT HILL*   NOT AVBL
JAY*           NOT AVBL
DUKE FIELD     CLEAR     77  77 100 CALM      30.01R
CRESTVIEW      CLEAR     75  74  96 CALM      30.02R FOG
VALPARAISO     PTCLDY    79  77  94 NW1       30.01R
DESTIN         CLEAR     83  79  88 CALM      30.00S

$$

MSZ076-079-261000-
INTERIOR SOUTHEAST MISSISSIPPI

CITY           SKY/WX    TMP DP  RH WIND       PRES   REMARKS
LEAKESVILLE*   NOT AVBL
AGRICOLA*      NOT AVBL

$$

MARINE OBSERVATIONS

STATION/POSITION TIME  TEMP    WIND        PRES    WAVE
                       AIR SEA DIR/SP/G            HT/PER
                 (UTC) (F)     (DEG/KT/KT) (MB)    (FT/S)
PASCAGOULA       0900   81     300/  6/  8 1015.5F
PETIT BOIS ISLND 0900   82     260/ 14/ 16 1016.1S
GRAND BAY        0800   81     270/  6     1017.0S
KATRINA CUT      0800   83     270/ 15     1016.6S
CEDAR POINT      0800   83     270/ 16     1015.9S
E DAUPHIN ISLAND 0800   82     260/  6/  8 1015.7F
MIDDLE BAY LIGHT 0800   82     260/  8     1015.6S
USCG MOBILE BAY  0900   76 84  330/  2/  2 1014.7S
STATE DOCKS      0900   77 84              1015.6R
MEAHER PARK      0800   80     260/  3     1015.6S
WEEKS BAY        0800   75                   N/A
FORT MORGAN      0900   83     280/ 16/ 17 1015.3S
12 S ORANGE BCH  0900   83 84  250/ 14/ 17 1015.8F   2/ 4
PENSACOLA BAY    0900   80 85  290/  2/  5 1016.1R
64 S DAUPHIN ISL 0814   83 85  250/ 14/ 16 1016.5F
67 S FORT MORGAN 0800   82                 1016.3S

$$

SELECTED LOCATIONS ACROSS THE REGION

CITY           SKY/WX    TMP DP  RH WIND       PRES   REMARKS
NEW ORLEANS    MOCLDY    79  75  87 SW6       30.01S
GULFPORT       CLEAR     80  75  84 CALM      30.00S
PASCAGOULA AP  CLEAR     75  74  96 CALM      30.00S FOG
PASCAGOULA*      N/A     79  79 100 CALM      29.99F
HATTIESBURG    CLEAR     75  73  93 CALM      30.01S
LAUREL         CLEAR     72  70  94 CALM      30.03R
MERIDIAN       CLEAR     70  68  93 CALM      30.01S
JACKSON        CLEAR     72  71  97 CALM      30.01R
MONTGOMERY     CLEAR     74  72  93 CALM      30.00S FOG
TROY           PTCLDY    73  71  93 CALM      30.01S FOG
KINSTON*       NOT AVBL
GENEVA*          N/A     72  70  94 CALM      30.03S
ASHFORD*       NOT AVBL
DOTHAN         CLEAR     74  73  97 SW3       30.05R
PANAMA CITY    MOCLDY    78  76  93 CALM      30.00S

$$



USA.gov is the U.S. government's official web portal to all federal, state and local government web resources and services.